Hourly Weather el Prat de Llobregat

Today, 5 August, Wednesday

Time Temperature Precipitation Wind Pressure Humidity
00:00 +26°C° 0 mm 2 mps 760 mmHg 72%
01:00 +26°C° 0.1 mm 2 mps 760 mmHg 72%
02:00 +26°C° 0.1 mm 2 mps 760 mmHg 71%
03:00 +26°C° 0.1 mm 1 mps 760 mmHg 71%
04:00 +26°C° 0.1 mm 1 mps 760 mmHg 70%
05:00 +26°C° 0.1 mm 2 mps 760 mmHg 70%
06:00 +25°C° 0.1 mm 2 mps 759 mmHg 70%
07:00 +27°C° 0.1 mm 2 mps 760 mmHg 65%
08:00 +28°C° 0.1 mm 2 mps 760 mmHg 60%
09:00 +29°C° 0.1 mm 2 mps 760 mmHg 55%
10:00 +30°C° 0 mm 2 mps 760 mmHg 53%
11:00 +31°C° 0 mm 3 mps 760 mmHg 51%
12:00 +31°C° 0 mm 3 mps 759 mmHg 48%
13:00 +31°C° 0 mm 3 mps 759 mmHg 49%
14:00 +33°C° 0 mm 4 mps 759 mmHg 50%
15:00 +33°C° 0 mm 4 mps 759 mmHg 50%
16:00 +32°C° 0 mm 4 mps 759 mmHg 55%
17:00 +30°C° 0 mm 4 mps 759 mmHg 60%
18:00 +29°C° 0 mm 4 mps 759 mmHg 64%
19:00 +29°C° 0 mm 3 mps 759 mmHg 67%
20:00 +28°C° 0 mm 2 mps 760 mmHg 69%
21:00 +27°C° 0 mm 2 mps 760 mmHg 71%
22:00 +27°C° 0 mm 2 mps 760 mmHg 71%
23:00 +27°C° 0 mm 2 mps 760 mmHg 71%

Tomorrow, 6 August, Thursday

Time Temperature Precipitation Wind Pressure Humidity
00:00 +27°C° 0 mm 2 mps 760 mmHg 71%
01:00 +27°C° 0 mm 2 mps 760 mmHg 72%
02:00 +26°C° 0 mm 2 mps 760 mmHg 72%
03:00 +26°C° 0 mm 3 mps 760 mmHg 73%
04:00 +26°C° 0 mm 2 mps 760 mmHg 72%
05:00 +26°C° 0 mm 2 mps 761 mmHg 71%
06:00 +27°C° 0 mm 2 mps 761 mmHg 70%
07:00 +28°C° 0 mm 2 mps 761 mmHg 63%
08:00 +29°C° 0 mm 2 mps 761 mmHg 57%
09:00 +31°C° 0 mm 2 mps 761 mmHg 51%
10:00 +32°C° 0 mm 2 mps 761 mmHg 49%
11:00 +33°C° 0 mm 3 mps 761 mmHg 47%
12:00 +34°C° 0 mm 3 mps 761 mmHg 45%
13:00 +34°C° 0 mm 4 mps 761 mmHg 45%
14:00 +34°C° 0 mm 4 mps 761 mmHg 46%
15:00 +34°C° 0 mm 5 mps 760 mmHg 46%
16:00 +33°C° 0 mm 4 mps 760 mmHg 48%
17:00 +33°C° 0 mm 4 mps 760 mmHg 50%
18:00 +32°C° 0 mm 4 mps 761 mmHg 51%
19:00 +30°C° 0 mm 4 mps 761 mmHg 54%
20:00 +29°C° 0 mm 3 mps 761 mmHg 56%
21:00 +29°C° 0 mm 3 mps 762 mmHg 58%
22:00 +29°C° 0 mm 3 mps 762 mmHg 58%
23:00 +28°C° 0 mm 3 mps 762 mmHg 58%

Day after tomorrow, 7 August, Friday

Time Temperature Precipitation Wind Pressure Humidity
00:00 +28°C° 0 mm 3 mps 762 mmHg 58%
01:00 +28°C° 0 mm 3 mps 762 mmHg 59%
02:00 +28°C° 0 mm 3 mps 762 mmHg 61%
03:00 +27°C° 0 mm 3 mps 761 mmHg 62%
04:00 +27°C° 0 mm 3 mps 762 mmHg 62%
05:00 +28°C° 0 mm 3 mps 762 mmHg 63%
06:00 +28°C° 0 mm 3 mps 762 mmHg 63%
07:00 +29°C° 0 mm 3 mps 762 mmHg 58%
08:00 +32°C° 0 mm 4 mps 762 mmHg 54%
09:00 +33°C° 0 mm 4 mps 762 mmHg 49%
10:00 +34°C° 0 mm 4 mps 762 mmHg 49%
11:00 +34°C° 0 mm 5 mps 762 mmHg 48%
12:00 +35°C° 0 mm 5 mps 762 mmHg 47%
13:00 +35°C° 0 mm 5 mps 761 mmHg 47%
14:00 +35°C° 0 mm 5 mps 761 mmHg 47%
15:00 +35°C° 0 mm 6 mps 761 mmHg 47%
16:00 +34°C° 0.1 mm 5 mps 761 mmHg 48%
17:00 +33°C° 0.1 mm 5 mps 761 mmHg 49%
18:00 +32°C° 0.1 mm 4 mps 761 mmHg 51%
19:00 +30°C° 0 mm 4 mps 762 mmHg 52%
20:00 +30°C° 0 mm 3 mps 762 mmHg 54%
21:00 +29°C° 0 mm 2 mps 762 mmHg 56%
22:00 +29°C° 0 mm 2 mps 762 mmHg 59%
23:00 +29°C° 0 mm 3 mps 762 mmHg 62%

8 August, Saturday

Time Temperature Precipitation Wind Pressure Humidity
00:00 +28°C° 0 mm 3 mps 762 mmHg 65%
01:00 +28°C° 0 mm 3 mps 762 mmHg 66%
02:00 +28°C° 0 mm 2 mps 762 mmHg 68%
03:00 +27°C° 0 mm 2 mps 762 mmHg 70%
04:00 +28°C° 0 mm 2 mps 762 mmHg 70%
05:00 +28°C° 0 mm 1 mps 762 mmHg 69%
06:00 +28°C° 0 mm 1 mps 762 mmHg 69%
07:00 +29°C° 0 mm 1 mps 762 mmHg 64%
08:00 +30°C° 0 mm 1 mps 762 mmHg 59%
09:00 +31°C° 0 mm 2 mps 762 mmHg 55%
10:00 +32°C° 0 mm 2 mps 762 mmHg 54%
11:00 +32°C° 0 mm 2 mps 762 mmHg 52%
12:00 +34°C° 0 mm 3 mps 762 mmHg 51%
13:00 +34°C° 0 mm 3 mps 762 mmHg 50%
14:00 +34°C° 0 mm 3 mps 761 mmHg 49%
15:00 +34°C° 0 mm 3 mps 761 mmHg 48%
16:00 +34°C° 0.3 mm 2 mps 761 mmHg 49%
17:00 +32°C° 0.3 mm 2 mps 761 mmHg 49%
18:00 +31°C° 0.3 mm 1 mps 761 mmHg 50%
19:00 +31°C° 0 mm 2 mps 761 mmHg 51%
20:00 +31°C° 0 mm 2 mps 761 mmHg 52%
21:00 +30°C° 0 mm 3 mps 761 mmHg 53%
22:00 +30°C° 0 mm 3 mps 761 mmHg 54%
23:00 +30°C° 0 mm 3 mps 761 mmHg 55%

9 August, Sunday

Time Temperature Precipitation Wind Pressure Humidity
00:00 +29°C° 0 mm 3 mps 761 mmHg 56%
01:00 +29°C° 0 mm 3 mps 761 mmHg 57%
02:00 +29°C° 0 mm 2 mps 761 mmHg 57%
03:00 +29°C° 0 mm 2 mps 760 mmHg 58%
04:00 +29°C° 0 mm 2 mps 760 mmHg 57%
05:00 +29°C° 0 mm 2 mps 760 mmHg 57%
06:00 +29°C° 0 mm 2 mps 760 mmHg 57%
07:00 +30°C° 0 mm 2 mps 760 mmHg 53%
08:00 +31°C° 0 mm 2 mps 760 mmHg 50%
09:00 +32°C° 0 mm 2 mps 760 mmHg 46%
10:00 +34°C° 0 mm 3 mps 760 mmHg 44%
11:00 +35°C° 0 mm 3 mps 760 mmHg 42%
12:00 +36°C° 0 mm 4 mps 759 mmHg 40%
13:00 +36°C° 0 mm 4 mps 759 mmHg 41%
14:00 +36°C° 0 mm 4 mps 759 mmHg 41%
15:00 +36°C° 0 mm 4 mps 758 mmHg 42%
16:00 +35°C° 0 mm 4 mps 758 mmHg 43%
17:00 +34°C° 0 mm 3 mps 758 mmHg 45%
18:00 +33°C° 0 mm 3 mps 758 mmHg 47%
19:00 +33°C° 0 mm 3 mps 758 mmHg 49%
20:00 +31°C° 0 mm 2 mps 758 mmHg 52%
21:00 +30°C° 0 mm 2 mps 759 mmHg 54%
22:00 +30°C° 0 mm 2 mps 759 mmHg 55%
23:00 +30°C° 0 mm 2 mps 759 mmHg 55%

10 August, Monday

Time Temperature Precipitation Wind Pressure Humidity
00:00 +29°C° 0 mm 2 mps 758 mmHg 56%
01:00 +29°C° 0 mm 2 mps 758 mmHg 56%
02:00 +29°C° 0 mm 2 mps 758 mmHg 56%
03:00 +28°C° 0 mm 1 mps 758 mmHg 56%
04:00 +28°C° 0 mm 1 mps 758 mmHg 55%
05:00 +29°C° 0 mm 1 mps 758 mmHg 55%
06:00 +29°C° 0 mm 1 mps 758 mmHg 54%
07:00 +30°C° 0 mm 2 mps 758 mmHg 49%
08:00 +31°C° 0 mm 2 mps 758 mmHg 44%
09:00 +34°C° 0 mm 2 mps 758 mmHg 39%
10:00 +35°C° 0 mm 3 mps 758 mmHg 38%
11:00 +35°C° 0 mm 4 mps 758 mmHg 36%
12:00 +36°C° 0 mm 4 mps 758 mmHg 34%
13:00 +36°C° 0 mm 4 mps 757 mmHg 35%
14:00 +36°C° 0 mm 4 mps 757 mmHg 36%
15:00 +36°C° 0 mm 4 mps 757 mmHg 36%
16:00 +35°C° 0 mm 4 mps 757 mmHg 39%
17:00 +34°C° 0 mm 4 mps 757 mmHg 42%
18:00 +33°C° 0 mm 3 mps 757 mmHg 45%
19:00 +31°C° 0 mm 3 mps 757 mmHg 50%
20:00 +30°C° 0 mm 2 mps 757 mmHg 55%
21:00 +30°C° 0 mm 2 mps 758 mmHg 60%
22:00 +29°C° 0 mm 1 mps 758 mmHg 59%
23:00 +29°C° 0 mm 1 mps 758 mmHg 59%
Show more